User: anonymous   Login
Location: Paderno d�Adda
(45.6667°N, 9.4333°E)
Time: 04:44:43
(UTC+00:00)
Language:

Cosmos 1603 - Orbit

View from above orbital plane
View from above orbital plane
View from above satellite
View from above satellite

Ground track
Ground track

The orbit data is extracted from the following two-line orbital elements,

1 15333U 84106A   20337.23128078  .00000249  00000-0  15557-3 0  9991
2 15333  71.0255 325.3639 0017535  82.3318 277.9794 14.14104199866711
Epoch (UTC): 02 December 2020 05:33:02
Eccentricity: 0.0017535
inclination: 71.0255°
perigee height: 832 km
apogee height: 858 km
right ascension of ascending node: 325.3639°
argument of perigee: 82.3318°
revolutions per day: 14.14104199
mean anomaly at epoch: 277.9794°
orbit number at epoch: 86671

The dashed part of the orbit path shows where the satellite is in the earth's shadow,  

DLR